Weather in Fofantsevo

Russia / Vologda Oblast     59°19′45″N   39°59′59″E
temp.,
°C
wind,
m/s
gust,
m/s
humid.,
%
clouds,
%
prec.,
mm/h
press.,
hPa
HPBL,
m
30 june, thu
thu3000:00+10nnw33705 0.0 102029
03:00+9nw34700 0.0 102050
06:00+12nw397458 0.0 1018225
09:00+15nnw486710 0.0 1018463
12:00+21n694319 0.0 10171780
15:00+22nne694585 0.0 10172178
18:00+20nne485171 0.0 1017608
21:00+14nne356444 0.0 101872
1 july, fri
fri100:00+10ene22740 0.0 102016
03:00+8ne22765 0.0 102211
06:00+11ne23705 0.0 1022123
09:00+16ne23515 0.0 1023691
12:00+20nne24390 0.0 10221622
15:00+22nnw243710 0.0 10221782
18:00+22wnw23555 0.0 1021444
21:00+16w3467100 0.0 102145
2 july, sat
sat200:00+14wnw3472100 0.0 102158
03:00+12wnw347568 0.0 102056
06:00+15wnw377262 0.0 1020176
09:00+20wnw466219 0.0 1019404
12:00+25nw46585 0.0 10171048
15:00+27nnw575114 0.0 10162391
18:00+25nne48564 0.0 1015432
21:00+19nne35705 0.0 101666
3 july, sun
sun300:00+15nne2286100 0.0 101714
03:00+13nne22860 0.0 101721
06:00+15nne23790 0.0 1017129
09:00+20ne23680 0.0 1018654
12:00+23ne23530 0.0 10171437
15:00+25n12470 0.0 10171715
18:00+25nw12530 0.0 10161465
21:00+19ssw11723 0.0 101611
4 july, mon
mon400:00+17ssw2278100 0.0 101712
03:00+16wsw2281100 0.0 101711
06:00+18sw127870 0.0 101782
09:00+23sw2262100 0.0 1017426
12:00+26sw2252100 0.0 10171111
15:00+27ssw2346100 0.0 10161639
18:00+26sse2360100 0.0 1015169
21:00+21sw2375100 0.0 101527